FW8761 Weather Reports


time (UTC)temp
F
wind
direction
speed
knots
gust
knots
rain 1hr
in
rain 24hr
in
rain mn
in
humidity
%
barometer
mb
20260507071535 64 360 2.6 7.8 0.00 0.00 0.00 80 1013.3
20260507070027 64 36 0.9 7.0 0.00 0.00 0.00 80 1013.1
20260507064529 64 32 0.9 6.1 0.00 0.00 0.00 80 1013.0
20260507063029 64 351 0.9 5.2 0.00 0.00 0.00 80 1013.2
20260507061528 64 40 0.9 7.0 0.00 0.00 0.00 80 1012.9
20260507060027 64 240 0.9 5.2 0.00 0.00 0.00 80 1012.8
20260507054530 64 331 0.9 7.8 0.00 0.00 0.00 80 1012.8
20260507053028 64 84 0.0 7.0 0.00 0.00 0.00 80 1012.1
20260507051528 65 142 1.7 7.0 0.00 0.00 0.00 80 1012.0
20260507050029 65 26 1.7 10.4 0.00 0.00 0.00 79 1011.7
20260507044530 65 298 2.6 7.8 0.00 0.00 0.00 79 1012.3
20260507043035 65 13 2.6 8.7 0.00 0.00 0.00 79 1012.5
20260507041528 65 346 1.7 8.7 0.00 0.00 0.00 79 1012.1
20260507040028 65 337 1.7 8.7 0.00 0.00 0.00 80 1011.8
20260507034527 65 119 0.9 7.0 0.00 0.00 0.00 80 1011.4
20260507033028 65 149 1.7 8.7 0.00 0.00 0.00 80 1011.2
20260507031527 65 331 3.5 11.3 0.00 0.00 0.00 80 1011.2
20260507030031 66 310 3.5 11.3 0.00 0.00 0.00 79 1011.3
20260507024527 66 5 2.6 13.0 0.00 0.00 0.00 79 1011.2
20260507023029 66 336 4.3 14.8 0.00 0.00 0.00 78 1011.0
20260507021526 66 338 3.5 10.4 0.00 0.00 0.00 78 1010.9
20260507020025 66 15 4.3 8.7 0.00 0.00 0.00 78 1010.5
20260507014529 67 348 2.6 9.6 0.00 0.00 0.00 77 1009.8
20260507013035 67 316 4.3 13.9 0.00 0.00 0.00 77 1010.0
20260507011537 68 360 4.3 12.2 0.00 0.00 0.00 76 1009.9
20260507010030 69 53 3.5 10.4 0.00 0.00 0.00 75 1009.7
20260507004530 69 344 5.2 12.2 0.00 0.00 0.00 74 1009.2
20260507003025 70 342 4.3 10.4 0.00 0.00 0.00 73 1009.1
20260507001536 72 344 2.6 12.2 0.00 0.00 0.00 72 1009.3
20260507000030 73 10 4.3 12.2 0.00 0.00 0.00 70 1008.9
20260506234536 75 5 2.6 8.7 0.00 0.00 0.00 69 1008.7
20260506233027 76 163 1.7 8.7 0.00 0.00 0.00 68 1008.6
20260506231534 77 320 1.7 10.4 0.00 0.00 0.00 68 1008.3
20260506230031 78 16 3.5 12.2 0.00 0.00 0.00 68 1008.1
20260506224530 80 49 5.2 15.6 0.00 0.00 0.00 67 1007.9
20260506223029 80 349 3.5 13.0 0.00 0.00 0.00 67 1007.7
20260506221527 82 39 5.2 12.2 0.00 0.00 0.00 65 1007.4
20260506220028 83 55 2.6 10.4 0.00 0.00 0.00 67 1007.2
20260506214528 84 5 2.6 12.2 0.00 0.00 0.00 66 1007.3
20260506213029 86 71 4.3 12.2 0.00 0.00 0.00 62 1007.3
20260506211529 91 79 0.0 5.2 0.00 0.00 0.00 59 1007.0
20260506210030 91 0 0.9 5.2 0.00 0.00 0.00 58 1007.1
20260506204533 92 36 0.9 6.1 0.00 0.00 0.00 61 1007.2
20260506203034 91 0 0.9 6.1 0.00 0.00 0.00 61 1007.3
20260506201530 91 0 1.7 6.1 0.00 0.00 0.00 60 1007.7
20260506200031 91 73 0.0 3.5 0.00 0.00 0.00 61 1007.8
20260506194531 90 0 0.9 5.2 0.00 0.00 0.00 63 1007.8
20260506193028 89 175 0.9 6.1 0.00 0.00 0.00 63 1007.8
20260506191528 88 71 0.9 7.8 0.00 0.00 0.00 66 1007.9
20260506190035 87 0 0.9 4.3 0.00 0.00 0.00 69 1008.2
20260506184529 85 0 1.7 6.1 0.00 0.00 0.00 73 1008.2
20260506183030 83 51 0.0 5.2 0.00 0.00 0.00 76 1008.5
20260506181533 82 110 0.9 3.5 0.00 0.00 0.00 77 1008.8
20260506180030 81 77 0.9 5.2 0.00 0.00 0.00 78 1009.0
20260506174530 81 96 0.0 5.2 0.00 0.00 0.00 77 1009.0
20260506173037 81 0 0.9 5.2 0.00 0.00 0.00 77 1009.1
20260506171528 82 0 0.9 4.3 0.00 0.00 0.00 78 1009.0
20260506170030 81 346 0.0 3.5 0.00 0.00 0.00 78 1009.1
20260506164528 81 0 0.9 6.1 0.00 0.00 0.00 80 1009.1
20260506163045 80 44 0.9 5.2 0.00 0.00 0.00 82 1009.1
20260506161530 79 83 0.9 6.1 0.00 0.00 0.00 85 1009.1
20260506160029 78 178 0.9 3.5 0.00 0.00 0.00 86 1008.9
20260506154537 77 0 0.0 2.6 0.00 0.00 0.00 87 1008.7
20260506153031 77 83 0.0 2.6 0.00 0.00 0.00 87 1008.6
20260506151537 76 0 0.0 2.6 0.00 0.00 0.00 87 1008.4
20260506150029 76 5 0.0 3.5 0.00 0.00 0.00 88 1008.3
20260506144529 76 0 0.0 2.6 0.00 0.00 0.00 88 1008.3
20260506143028 76 146 0.0 3.5 0.00 0.00 0.00 88 1008.0
20260506141532 76 223 0.9 3.5 0.00 0.00 0.00 88 1007.7
20260506140033 76 146 0.9 4.3 0.00 0.00 0.00 88 1007.4
20260506134528 75 199 0.9 5.2 0.00 0.00 0.00 88 1007.0
20260506133029 75 142 1.7 6.1 0.00 0.00 0.00 89 1006.9
20260506131534 75 152 1.7 7.8 0.00 0.00 0.00 89 1006.7
20260506130030 75 194 2.6 7.8 0.00 0.00 0.00 89 1006.6
20260506124530 75 161 1.7 7.0 0.00 0.00 0.00 89 1006.5
20260506123030 75 188 0.9 7.8 0.00 0.00 0.00 89 1006.7
20260506121527 75 166 1.7 5.2 0.00 0.00 0.00 89 1006.6
20260506120026 75 194 0.9 7.8 0.00 0.00 0.00 89 1006.5
20260506114526 75 205 0.9 3.5 0.00 0.00 0.00 89 1006.5
20260506113028 75 0 0.0 3.5 0.00 0.00 0.00 89 1006.5
20260506111530 75 200 2.6 7.0 0.00 0.00 0.00 88 1006.5
20260506110028 75 190 0.9 5.2 0.00 0.00 0.00 88 1006.5
20260506104525 75 188 0.9 7.0 0.00 0.00 0.00 88 1006.2
20260506103029 75 204 2.6 7.0 0.00 0.00 0.00 88 1006.3
20260506101530 75 209 1.7 6.1 0.00 0.00 0.00 88 1006.3
20260506100031 76 180 2.6 7.0 0.00 0.00 0.00 87 1006.1
20260506094530 76 148 1.7 7.8 0.00 0.00 0.00 87 1006.1
20260506093026 76 158 3.5 7.0 0.00 0.00 0.00 87 1006.1
20260506091527 76 165 3.5 8.7 0.00 0.00 0.00 87 1006.0
20260506090030 76 179 2.6 8.7 0.00 0.00 0.00 87 1005.9
20260506084536 76 221 2.6 8.7 0.00 0.00 0.00 87 1006.1
20260506083031 76 192 4.3 9.6 0.00 0.00 0.00 87 1006.2
20260506081528 76 184 3.5 8.7 0.00 0.00 0.00 87 1006.3
20260506073030 76 195 1.7 6.1 0.00 0.00 0.00 87 1006.6